Regional Weather Roundup
Issued by NWS Little Rock, AR

Home | Current Version | Previous Version | Graphics & Text | Print | Product List | Glossary On
Versions: 1 2 3 4 5 6 7 8 9 10 11 12 13 14 15 16 17 18 19 20 21 22 23 24 25 26 27 28 29 30 31 32 33 34 35 36 37 38 39 40 41 42 43 44 45 46 47 48 49 50
000
ASUS44 KLZK 230305
RWRLZK

WEATHER ROUNDUP FOR ARKANSAS
NATIONAL WEATHER SERVICE LITTLE ROCK AR
1000 PM CDT SAT JUL 22 2017

NOTE: "FAIR" INDICATES FEW OR NO CLOUDS BELOW 12,000 FEET WITH NO
SIGNIFICANT WEATHER AND/OR OBSTRUCTIONS TO VISIBILITY.

ARZ001-003-010-029-230400-
NORTHWEST ARKANSAS

CITY           SKY/WX    TMP DP  RH WIND       PRES   REMARKS
FAYETTEVILLE   CLEAR     76  75  97 S6        29.94R
FORT SMITH     CLEAR     88  74  63 S7        29.88R HX  96
HARRISON       CLEAR     82  70  66 SW3       29.94R HX  86
BENTONVILLE    CLEAR     82  70  65 S3        29.93R HX  86
ROGERS         CLEAR     83  71  67 S7        29.94R HX  87
SILOAM SPGS    CLEAR     82  68  61 S7        29.92R HX  85
HIGHFILL       CLEAR     82  71  69 S6        29.93R HX  86
$$

ARZ004-005-016-230400-
NORTH CENTRAL ARKANSAS

CITY           SKY/WX    TMP DP  RH WIND       PRES   REMARKS
BATESVILLE     CLEAR     86  73  66 S3        29.90R HX  93
FLIPPIN        CLEAR     84  70  61 SW5       29.89R HX  88
MTN HOME       CLEAR     82  73  74 SW5       29.90R HX  87
$$

ARZ040-041-230400-
WEST CENTRAL ARKANSAS

CITY           SKY/WX    TMP DP  RH WIND       PRES   REMARKS
MENA           CLEAR     79  79 100 CALM      29.95R
MOUNT IDA      CLEAR     81  72  74 CALM      29.90R HX  85
$$

ARZ009-017-025-026-028-230400-
NORTHEAST ARKANSAS

CITY           SKY/WX    TMP DP  RH WIND       PRES   REMARKS
CORNING        LGT RAIN  84  77  79 SW9       29.87R HX  94
JONESBORO      CLEAR     85  77  77 S6        29.88S HX  95
WALNUT RIDGE   CLEAR     84  73  70 S10       29.88R HX  91
BLYTHEVILLE    CLEAR     85  78  80 SW7       29.89S HX  96
$$

ARZ022-023-033-042-044-230400-
CENTRAL ARKANSAS

CITY           SKY/WX    TMP DP  RH WIND       PRES   REMARKS
LITTLE ROCK    LGT RAIN  83  78  85 S7        29.91R HX  93
N LITTLE ROCK    N/A     84  76  75 CALM      29.89R HX  93
CONWAY           N/A     88  75  66 CALM      29.88R HX  97
SEARCY         CLEAR     83  78  85 S5        29.91R HX  93
HOT SPRINGS    CLEAR     84  75  74 CALM      29.91R HX  92
RUSSELLVILLE   CLEAR     80  76  87 CALM      29.88R HX  86
CLINTON        FAIR      81  79  94 CALM      29.91R HX  89
$$

ARZ036-230400-
EAST ARKANSAS

CITY           SKY/WX    TMP DP  RH WIND       PRES   REMARKS
WEST MEMPHIS   CLEAR     81  78  91 S7        29.90R HX  89
$$

ARZ050-053-066-070-073-230400-
SOUTHWEST ARKANSAS

CITY           SKY/WX    TMP DP  RH WIND       PRES   REMARKS
ARKADELPHIA    FAIR      83  80  91 CALM      29.90R HX  95
CAMDEN         PTCLDY    81  72  74 S5        29.90F
TEXARKANA      CLOUDY    83  74  74 SE5       29.90R HX  89
EL DORADO      MOCLDY    78  72  81 SW7       29.93F
DE QUEEN       CLEAR     81  79  94 CALM      29.88R HX  90
$$

ARZ056-057-069-230400-
SOUTHEAST ARKANSAS

CITY           SKY/WX    TMP DP  RH WIND       PRES   REMARKS
PINE BLUFF     MOCLDY    83  74  74 S9        29.91R HX  89
STUTTGART      CLEAR     88  66  48 S8        29.92S HX  90
MONTICELLO     MOCLDY    80  72  76 S7G18     29.92F

$$





USA.gov is the U.S. government's official web portal to all federal, state and local government web resources and services.